This is the latest recevied weather packets stored in our database for station/object VA3JLF-1. If no packets are shown the sender has not sent any weather packets the latest 10 day(s).
| Time | Temp. | Humidity | Pressure | Rain* | Wind** | Luminosity | Snow |
|---|---|---|---|---|---|---|---|
| 1778123948 | 6.67° C | 87% | 1007.7 hPa | 0 mm | - | - | - |
| 1778123348 | 6.67° C | 86% | 1007.9 hPa | 0 mm | - | - | - |
| 1778122748 | 6.67° C | 90% | 1008.2 hPa | 0 mm | - | - | - |
| 1778122148 | 6.67° C | 93% | 1008.3 hPa | 0 mm | - | - | - |
| 1778121548 | 6.67° C | 94% | 1008.2 hPa | 0 mm | - | - | - |
| 1778120947 | 6.67° C | 94% | 1008.5 hPa | 0 mm | - | - | - |
| 1778120348 | 6.67° C | 93% | 1008.1 hPa | 0 mm | - | - | - |
| 1778119749 | 7.22° C | 93% | 1008.2 hPa | 0 mm | - | - | - |
| 1778119148 | 7.22° C | 92% | 1008.1 hPa | 0 mm | - | - | - |
| 1778118547 | 7.22° C | 93% | 1008.1 hPa | 0 mm | - | - | - |
| 1778117948 | 7.22° C | 93% | 1008.3 hPa | 0 mm | - | - | - |
| 1778117350 | 7.22° C | - | - | 0 mm | - | - | - |
| 1778117347 | 7.22° C | 92% | 1008.2 hPa | 0 mm | - | - | - |
| 1778116747 | 7.22° C | 93% | 1008.2 hPa | 0 mm | - | - | - |
| 1778116148 | 7.22° C | 93% | 1007.8 hPa | 0 mm | - | - | - |
| 1778115547 | 7.22° C | 93% | 1007.8 hPa | 0 mm | - | - | - |
| 1778114948 | 7.22° C | 93% | 1007.7 hPa | 0 mm | - | - | - |
| 1778114348 | 7.22° C | 93% | 1007.7 hPa | 0 mm | - | - | - |
| 1778113747 | 7.22° C | 93% | 1007.5 hPa | 0 mm | - | - | - |
| 1778113147 | 6.67° C | 91% | 1007.6 hPa | 0 mm | - | - | - |
| 1778112549 | 6.67° C | 90% | 1007.7 hPa | 0 mm | - | - | - |
| 1778111948 | 6.67° C | 91% | 1007.5 hPa | 0 mm | - | - | - |
| 1778111347 | 6.67° C | 91% | 1007.6 hPa | 0 mm | - | - | - |
| 1778110747 | 6.67° C | 92% | 1007.4 hPa | 0 mm | - | - | - |
| 1778110148 | 6.67° C | 91% | 1007.2 hPa | 0 mm | - | - | - |
* Rain latest hour (hover to see other rain measurements)
** Current wind speed in m/s (hover to see current wind gust speed)